Mosby, MO

5:24 PM CST on November 12, 2019 (GMT -0600)
Clay County Regional

Weather History for KGPH - September, 2019

Change the Weather History Date:

Sunday, September 22, 2019

  Actual Average (WUND) Record (WUND)
Temperature  
Mean Temperature 70 °F -  
Max Temperature 78 °F - - (-1)
Min Temperature 62 °F - - (-1)
Cooling Degree Days 5    
Growing Degree Days 20 (Base 50)    
Moisture  
Dew Point 66 °F    
Average Humidity 90    
Maximum Humidity 100    
Minimum Humidity 78    
Precipitation  
Precipitation 0.00 in - - ()
Sea Level Pressure  
Sea Level Pressure 29.90 in    
Wind  
Wind Speed 3 mph ()    
Max Wind Speed 14 mph    
Max Gust Speed 23 mph    
Visibility 8.5 miles    
Events Rain , Thunderstorm    
Averages and records for this station are not official NWS values.
T = Trace of Precipitation, MM = Missing Value Source: Averaged Metar Reports

Daily Weather History Graph

Daily Weather History Graph

Search for Another Location

Airport or City:

Astronomy

Sep. 22, 2019 Rise Set
Actual Time 7:04 AM CDT 7:14 PM CDT
Civil Twilight 6:37 AM CDT 7:41 PM CDT
Nautical Twilight 6:06 AM CDT 8:12 PM CDT
Astronomical Twilight 5:34 AM CDT 8:44 PM CDT
Moon No Moon Rise 3:08 PM CDT (9/22)
Length of Visible Light 13h 03m
Length of Day
12h 09m
Last Quarter, 44% of the Moon is Illuminated
Sep 22
Last Quarter
Sep 28
New
Oct 5
First Quarter
Oct 13
Full
Oct 21
Last Quarter

Hourly Weather History & Observations

Time (CDT) Temp. Dew Point Humidity Pressure Visibility Wind Dir Wind Speed Gust Speed Precip Events Conditions
12:15 AM 73.4 °F 69.8 °F 88% 29.92 in 10.0 mi Calm Calm - N/A   Overcast
12:35 AM 73.4 °F 69.8 °F 88% 29.92 in 10.0 mi Calm Calm - N/A   Overcast
12:55 AM 73.4 °F 69.8 °F 88% 29.92 in 10.0 mi Calm Calm - N/A   Overcast
1:15 AM 73.4 °F 68.0 °F 83% 29.91 in 10.0 mi South 4.6 mph - N/A   Mostly Cloudy
1:35 AM 73.4 °F 68.0 °F 83% 29.90 in 10.0 mi South 9.2 mph - N/A   Scattered Clouds
1:55 AM 75.2 °F 68.0 °F 78% 29.90 in 10.0 mi South 5.8 mph - N/A   Scattered Clouds
2:15 AM 75.2 °F 68.0 °F 78% 29.90 in 10.0 mi South 9.2 mph - N/A Thunderstorm Mostly Cloudy
2:55 AM 75.2 °F 68.0 °F 78% 29.89 in 10.0 mi South 10.4 mph 17.3 mph N/A   Clear
3:15 AM 75.2 °F 68.0 °F 78% 29.88 in 10.0 mi SSW 11.5 mph 19.6 mph N/A   Scattered Clouds
3:35 AM 75.2 °F 68.0 °F 78% 29.88 in 10.0 mi SSW 12.7 mph 18.4 mph N/A   Scattered Clouds
3:55 AM 75.2 °F 68.0 °F 78% 29.90 in 10.0 mi WSW 10.4 mph - N/A   Mostly Cloudy
4:35 AM 64.4 °F 62.6 °F 94% 29.94 in 7.0 mi North 8.1 mph - N/A Rain , Thunderstorm Rain
4:55 AM 64.4 °F 62.6 °F 94% 29.93 in 7.0 mi Calm Calm - N/A Rain Rain
5:15 AM 64.4 °F 62.6 °F 94% 29.92 in 7.0 mi Calm Calm - N/A Rain Rain
5:35 AM 64.4 °F 62.6 °F 94% 29.91 in 10.0 mi Calm Calm - N/A Rain Light Rain
5:55 AM 64.4 °F 62.6 °F 94% 29.92 in 1.8 mi Calm Calm - N/A Rain Heavy Rain
6:15 AM 64.4 °F 62.6 °F 94% 29.92 in 4.0 mi Calm Calm - N/A Rain Rain
6:35 AM 64.4 °F 62.6 °F 94% 29.92 in 5.0 mi Calm Calm - N/A Rain Light Rain
6:55 AM 64.4 °F 62.6 °F 94% 29.93 in 5.0 mi Calm Calm - N/A   Drizzle
7:15 AM 64.4 °F 62.6 °F 94% 29.93 in 5.0 mi Calm Calm - N/A Rain Light Rain
7:35 AM 64.4 °F 62.6 °F 94% 29.92 in 10.0 mi Calm Calm - N/A   Light Drizzle
7:55 AM 64.4 °F 62.6 °F 94% 29.91 in 10.0 mi Calm Calm - N/A Rain Light Rain
8:15 AM 64.4 °F 64.4 °F 100% 29.92 in 7.0 mi Calm Calm - N/A Rain Light Rain
8:35 AM 64.4 °F 64.4 °F 100% 29.90 in 10.0 mi Calm Calm - N/A Rain Rain
8:55 AM 64.4 °F 64.4 °F 100% 29.89 in 10.0 mi Calm Calm - N/A Rain Rain
9:15 AM 64.4 °F 64.4 °F 100% 29.89 in 5.0 mi Calm Calm - N/A Rain Rain
9:35 AM 64.4 °F 64.4 °F 100% 29.88 in 4.0 mi Calm Calm - N/A Rain Rain
9:55 AM 64.4 °F 64.4 °F 100% 29.89 in 2.5 mi Calm Calm - N/A Rain Heavy Rain
10:15 AM 64.4 °F 64.4 °F 100% 29.89 in 3.0 mi Calm Calm - N/A Rain Light Rain
10:35 AM 64.4 °F 64.4 °F 100% 29.87 in 5.0 mi Calm Calm - N/A Rain Rain
10:55 AM 64.4 °F 64.4 °F 100% 29.86 in 7.0 mi ESE 4.6 mph - N/A Rain Light Rain
11:35 AM 68.0 °F 66.2 °F 94% 29.85 in 10.0 mi Calm Calm - N/A   Clear
11:55 AM 68.0 °F 68.0 °F 100% 29.86 in 10.0 mi Calm Calm - N/A   Mostly Cloudy
12:15 PM 68.0 °F 68.0 °F 100% 29.87 in 7.0 mi Calm Calm - N/A   Overcast
12:35 PM 69.8 °F 68.0 °F 94% 29.87 in 5.0 mi Calm Calm - N/A   Overcast
12:55 PM 69.8 °F 68.0 °F 94% 29.87 in 10.0 mi Calm Calm - N/A   Overcast
1:15 PM 69.8 °F 68.0 °F 94% 29.87 in 10.0 mi Calm Calm - N/A   Overcast
1:35 PM 69.8 °F 68.0 °F 94% 29.87 in 10.0 mi Calm Calm - N/A   Overcast
1:55 PM 71.6 °F 68.0 °F 88% 29.87 in 10.0 mi Calm Calm - N/A   Overcast
2:15 PM 71.6 °F 68.0 °F 88% 29.86 in 10.0 mi Calm Calm - N/A   Overcast
2:35 PM 71.6 °F 68.0 °F 88% 29.85 in 10.0 mi Calm Calm - N/A   Overcast
2:55 PM 73.4 °F 69.8 °F 88% 29.85 in - SSE 6.9 mph - N/A   Mostly Cloudy
3:15 PM 75.2 °F 69.8 °F 83% 29.84 in - Calm Calm - N/A   Mostly Cloudy
3:35 PM 75.2 °F 69.8 °F 83% 29.84 in 10.0 mi Calm Calm - N/A   Overcast
3:55 PM 77.0 °F 69.8 °F 78% 29.83 in - Calm Calm - N/A   Overcast
4:15 PM 78.8 °F 71.6 °F 78% 29.83 in - SSW 3.5 mph - N/A   Unknown
4:55 PM 75.2 °F 71.6 °F 89% 29.83 in 3.0 mi Calm Calm - N/A Rain Heavy Rain
5:15 PM 73.4 °F 71.6 °F 94% 29.85 in 10.0 mi Calm Calm - N/A Rain Light Rain
5:35 PM 75.2 °F 69.8 °F 83% 29.86 in - NW 11.5 mph 16.1 mph N/A   Mostly Cloudy
5:55 PM 75.2 °F 68.0 °F 78% 29.87 in - NW 13.8 mph 20.7 mph N/A   Mostly Cloudy
6:15 PM 73.4 °F 66.2 °F 78% 29.88 in 10.0 mi NW 12.7 mph 23.0 mph N/A   Unknown
6:35 PM 71.6 °F 68.0 °F 88% 29.89 in 10.0 mi NW 11.5 mph 19.6 mph N/A   Mostly Cloudy
6:55 PM 69.8 °F 66.2 °F 88% 29.91 in 10.0 mi NW 9.2 mph - N/A   Overcast
7:35 PM 69.8 °F 64.4 °F 83% 29.93 in 10.0 mi Calm Calm - N/A   Overcast
7:55 PM 69.8 °F 64.4 °F 83% 29.94 in 10.0 mi Calm Calm - N/A   Overcast
8:15 PM 69.8 °F 64.4 °F 83% 29.95 in 10.0 mi Calm Calm - N/A   Overcast
8:35 PM 68.0 °F 64.4 °F 88% 29.97 in 10.0 mi Calm Calm - N/A   Overcast
8:55 PM 68.0 °F 64.4 °F 88% 29.98 in 10.0 mi Calm Calm - N/A   Overcast
9:15 PM 68.0 °F 62.6 °F 83% 29.98 in 10.0 mi Calm Calm - N/A   Overcast
9:35 PM 68.0 °F 62.6 °F 83% 29.99 in 10.0 mi Calm Calm - N/A   Overcast
10:15 PM 66.2 °F 62.6 °F 88% 30.00 in 10.0 mi Calm Calm - N/A   Clear
10:35 PM 64.4 °F 60.8 °F 88% 30.01 in 10.0 mi Calm Calm - N/A   Clear
10:55 PM 62.6 °F 62.6 °F 100% 30.01 in 10.0 mi Calm Calm - N/A   Clear
11:35 PM 62.6 °F 60.8 °F 94% 30.02 in 10.0 mi Calm Calm - N/A   Clear
11:55 PM 62.6 °F 60.8 °F 94% 30.03 in 10.0 mi Calm Calm - N/A   Clear